Regional Weather Roundup
Issued by NWS

Home | Current Version | Previous Version | Graphics & Text | Print | Product List | Glossary On
Versions: 1 2 3 4 5 6 7 8 9 10 11 12 13 14 15 16 17 18 19 20 21 22 23 24 25 26 27 28
000
ASUS45 KBOI 181210
RWRID

IDAHO REGIONAL WEATHER ROUNDUP
NATIONAL WEATHER SERVICE BOISE ID
600 AM MDT MON SEP 18 2017

NOTE: "FAIR" INDICATES FEW OR NO CLOUDS BELOW 12000 FEET
WITH NO SIGNIFICANT WEATHER AND/OR OBSTRUCTIONS TO VISIBILITY

IDZ012-014-181300-
SOUTHWEST IDAHO


CITY           SKY/WX    TMP DP  RH WIND       PRES   REMARKS
BOISE          LGT RAIN  59  45  59 NE9       29.84F
CALDWELL       CLOUDY    58  51  78 N8        29.81F
MOUNTAIN HOME  CLOUDY    55  34  45 E5        29.83F
$$

IDZ016-017-181300-
SOUTHCENTRAL IDAHO


CITY           SKY/WX    TMP DP  RH WIND       PRES   REMARKS
BURLEY         MOCLDY    55  31  39 S13       29.87F
JEROME         CLOUDY    56  31  38 SE8       29.88F
TWIN FALLS     CLOUDY    60  27  28 S9        29.88S
$$

IDZ019>023-181300-
SOUTHEAST IDAHO


CITY           SKY/WX    TMP DP  RH WIND       PRES   REMARKS
IDAHO FALLS    CLOUDY    45  41  86 CALM      29.92F
POCATELLO      CLOUDY    45  38  76 E5        29.91F
REXBURG        CLOUDY    42  36  79 E3        29.93F
$$

IDZ006-010-011-018-031-032-181300-
CENTRAL IDAHO MOUNTAINS


CITY           SKY/WX    TMP DP  RH WIND       PRES   REMARKS
MCCALL         CLOUDY    52  40  63 S12       29.84S
HAILEY         CLOUDY    45  32  61 NW8       29.94S
STANLEY          N/A     41  28  60 VRB3      29.94R
SALMON         CLOUDY    47  41  80 SE5       29.81F
CHALLIS        MOCLDY    40  36  86 CALM      29.85F
$$

IDZ002-004-006-007-026-181300-
NORTHERN IDAHO


CITY           SKY/WX    TMP DP  RH WIND       PRES   REMARKS
LEWISTON       CLOUDY    57  52  83 CALM      29.71F
LOWELL           N/A     52  44  74 NW3       29.75F
COEUR D`ALENE  LGT RAIN  52  49  89 S6        29.71F
MULLAN PASS    LGT RAIN  40  39  97 VRB5      29.77F VSB 1/4
$$




USA.gov is the U.S. government's official web portal to all federal, state and local government web resources and services.